N0XUT Weather Reports


Display with metric or nautical units.
time (UTC)temp
F
wind
direction
speed
MPH
gust
MPH
rain 1hr
in
rain 24hr
in
rain mn
in
humidity
%
barometer
mb
20260905122958 74 61 2.0 5.0 0.00 0.06 0.00 94 1011.5
20260905121458 73 52 2.0 5.0 0.00 0.06 0.00 95 1011.6
20260905114458 73 27 2.0 5.0 0.00 0.06 0.00 94 1011.4
20260905112958 72 41 2.0 3.0 0.00 0.06 0.00 94 1010.8
20260905111458 72 46 1.0 2.0 0.00 0.06 0.00 94 1011.0
20260905105958 72 32 0.0 3.0 0.00 0.06 0.00 94 1010.9
20260905104459 73 19 1.0 3.0 0.00 0.06 0.00 94 1010.8
20260905101458 73 63 0.0 2.0 0.00 0.06 0.00 93 1010.5
20260905095958 74 63 0.0 2.0 0.00 0.06 0.00 93 1010.6
20260905094459 74 63 1.0 3.0 0.00 0.06 0.00 93 1010.7
20260905091458 74 71 1.0 3.0 0.00 0.06 0.00 93 1010.8
20260905085958 74 10 2.0 3.0 0.00 0.06 0.00 92 1010.9
20260905084459 75 51 0.0 0.0 0.00 0.06 0.00 92 1010.9
20260905082959 75 51 0.0 0.0 0.00 0.06 0.00 91 1010.9
20260905081458 75 51 0.0 2.0 0.00 0.06 0.00 91 1011.0
20260905075958 75 111 0.0 3.0 0.00 0.06 0.00 91 1011.1
20260905074459 76 78 2.0 3.0 0.00 0.06 0.00 91 1011.1
20260905072958 76 96 2.0 3.0 0.00 0.06 0.00 90 1011.1
20260905071459 76 52 2.0 3.0 0.00 0.06 0.00 90 1011.3
20260905065958 76 40 2.0 7.0 0.00 0.06 0.00 90 1011.3
20260905064459 76 59 2.0 3.0 0.00 0.06 0.00 89 1011.2
20260905061458 76 77 2.0 6.0 0.00 0.06 0.00 88 1011.0
20260905055959 76 72 2.0 5.0 0.00 0.06 0.00 88 1011.0
20260905054459 76 27 1.0 8.0 0.00 0.06 0.00 89 1011.1
20260905051459 76 5 0.0 2.0 0.00 0.06 0.00 89 1010.9
20260905044458 76 5 0.0 2.0 0.00 0.06 0.06 89 1010.6
20260905042958 76 77 0.0 1.0 0.00 0.06 0.06 89 1010.6
20260905041458 76 77 0.0 0.0 0.00 0.06 0.06 89 1010.6
20260905035959 76 77 0.0 1.0 0.00 0.06 0.06 88 1010.6
20260905034458 77 77 0.0 1.0 0.00 0.06 0.06 86 1010.4
20260905032958 78 77 0.0 3.0 0.00 0.06 0.06 85 1010.6
20260905031458 77 53 2.0 5.0 0.00 0.06 0.06 87 1010.6
20260905025958 78 38 3.0 6.0 0.00 0.06 0.06 86 1010.5
20260905015958 78 132 0.0 1.0 0.00 0.06 0.06 85 1009.7
20260905014458 79 132 0.0 1.0 0.00 0.06 0.06 84 1009.6
20260905012958 80 132 0.0 1.0 0.00 0.06 0.06 82 1009.7
20260905011459 80 143 0.0 3.0 0.00 0.06 0.06 81 1009.8
20260905005958 81 96 2.0 3.0 0.00 0.06 0.06 79 1009.9
20260905004459 82 55 3.0 6.0 0.00 0.06 0.06 78 1010.1
20260905002959 82 51 3.0 12.0 0.00 0.06 0.06 76 1010.4
20260905001459 84 40 5.0 13.0 0.00 0.06 0.06 72 1010.4
20260904235959 91 60 1.0 3.0 0.00 0.06 0.06 67 1010.4
20260904234459 92 196 0.0 2.0 0.00 0.06 0.06 64 1010.2
20260904232959 92 228 0.0 3.0 0.00 0.06 0.06 64 1010.1
20260904231459 91 264 2.0 3.0 0.00 0.06 0.06 61 1010.2
20260904225959 91 295 0.0 2.0 0.00 0.06 0.06 63 1010.2
20260904222959 91 226 2.0 5.0 0.00 0.06 0.06 62 1009.8
20260904221459 92 242 5.0 9.0 0.00 0.06 0.06 59 1009.5
20260904215959 92 243 5.0 10.0 0.00 0.06 0.06 60 1009.2
20260904214459 93 239 5.0 12.0 0.00 0.07 0.06 59 1009.3
20260904205959 92 228 6.0 12.0 0.00 0.08 0.06 58 1009.6
20260904204459 93 209 4.0 15.0 0.00 0.08 0.06 56 1009.1
20260904202959 93 223 5.0 13.0 0.00 0.08 0.06 56 1009.1
20260904195959 92 181 5.0 14.0 0.00 0.08 0.06 60 1009.1
20260904194458 92 184 4.0 13.0 0.00 0.08 0.06 62 1009.3
20260904192958 92 200 5.0 12.0 0.00 0.08 0.06 61 1009.5
20260904185959 91 184 3.0 12.0 0.00 0.08 0.06 63 1009.6
20260904184459 90 183 7.0 16.0 0.00 0.08 0.06 63 1010.0
20260904182959 88 176 5.0 12.0 0.00 0.08 0.06 68 1010.1
20260904181458 86 189 3.0 9.0 0.00 0.08 0.06 78 1010.2
20260904175959 84 183 1.0 3.0 0.01 0.08 0.06 87 1010.2
20260904174459 83 238 0.0 2.0 0.02 0.08 0.06 88 1010.4
20260904172959 82 298 0.0 3.0 0.06 0.08 0.06 85 1010.7
20260904165959 83 79 2.0 3.0 0.05 0.07 0.05 83 1010.6
20260904164500 83 159 1.0 10.0 0.04 0.06 0.04 80 1010.9
20260904162959 85 244 3.0 10.0 0.00 0.02 0.00 72 1010.9
20260904161459 84 216 1.0 6.0 0.00 0.02 0.00 76 1010.8
20260904155959 83 186 1.0 6.0 0.00 0.02 0.00 79 1010.7
20260904154459 85 273 4.0 9.0 0.00 0.02 0.00 73 1010.8
20260904152959 85 226 3.0 9.0 0.00 0.02 0.00 70 1010.6
20260904151459 85 210 3.0 12.0 0.00 0.02 0.00 70 1010.6
20260904145959 84 225 5.0 12.0 0.00 0.02 0.00 72 1010.6
20260904144459 83 219 3.0 12.0 0.00 0.02 0.00 74 1010.5
20260904141459 81 240 2.0 6.0 0.00 0.02 0.00 78 1010.4
20260904135958 80 184 2.0 10.0 0.00 0.02 0.00 78 1010.4
20260904134459 80 203 2.0 10.0 0.00 0.02 0.00 78 1010.3
20260904132959 79 194 2.0 9.0 0.00 0.02 0.00 80 1010.3
20260904125959 77 181 2.0 6.0 0.00 0.02 0.00 84 1010.2
20260904124459 76 173 2.0 5.0 0.00 0.02 0.00 85 1010.1